Seattle, WA
on Saturday, December 8, 2012

Saturday
Previous Day Next Day
Daily Summary
 ActualAverageRecord
Temperature
Mean Temperature °F 41°F  
Max Temperature 44°F 46°F 59°F (1957)
Min Temperature 38°F 36°F 13°F (1972)
Degree Days
Heating Degree Days 24 24  
Month to date heating degree days 155 188  
Since 1 July heating degree days 1182 1371  
Cooling Degree Days 0 0  
Month to date cooling degree days 0 0  
Year to date cooling degree days 177 189  
Moisture
Dew Point 33°F   
Average Humidity 75    
Maximum Humidity 82    
Minimum Humidity 67    
Precipitation
Precipitation 0.00 in 0.18 in 1.61 in (1971)
Month to date precipitation 2.16 1.53  
Year to date precipitation 43.57 33.67  
Snow
Snow 0.00 in in 2.20 in (1971)
Month to date snowfall 0.0  
Since 1 July snowfall 0.0  
Snow Depth 0.00 in   
Wind
Wind Speed 4 mph   
Max Wind Speed 12 mph   
Max Gust Speed 14 mph   
Visibility 10 miles   
Events     

Key: T is trace of precipitation, MM is missing value
Source: NWS Daily Summary
Time(PST)TemperatureDew PointHumidity Pressure Visibility Wind DirectionWind SpeedGust SpeedPrecipitationEvents Conditions
12:53 AM 39.0°F 33.1°F 79% 30.17 in 10.0 miles South 5.8 mph - N/A   Overcast
1:53 AM 37.9°F 32.0°F 79% 30.17 in 10.0 miles SSE 5.8 mph - N/A   Overcast
2:53 AM 39.2°F 32.0°F 75% 30.16 in 10.0 miles SW 8.1 mph - N/A   Overcast
3:53 AM 39.2°F 32.0°F 75% 30.16 in 10.0 miles SSE 6.9 mph - N/A   Overcast
4:53 AM 39.9°F 33.1°F 77% 30.19 in 10.0 miles SW 8.1 mph - N/A   Overcast
5:53 AM 39.0°F 33.1°F 79% 30.20 in 10.0 miles SSE 4.6 mph - N/A   Overcast
6:53 AM 39.0°F 33.1°F 79% 30.21 in 10.0 miles SSE 8.1 mph - N/A   Overcast
7:00 AM 37.4°F 33.8°F 87% 30.18 in 10.0 miles SSE 9.2 mph - N/A   Overcast
7:42 AM 39.2°F 33.8°F 81% 30.19 in 10.0 miles SSE 4.6 mph - N/A   Overcast
7:53 AM 39.0°F 34.0°F 82% 30.22 in 10.0 miles SSE 4.6 mph - N/A   Overcast
8:53 AM 39.0°F 34.0°F 82% 30.24 in 10.0 miles SE 6.9 mph - N/A   Overcast
9:45 AM 39.2°F 33.8°F 81% 30.23 in 10.0 miles SSE 4.6 mph - N/A   Mostly Cloudy
9:53 AM 39.9°F 34.0°F 79% 30.26 in 10.0 miles SSE 5.8 mph - N/A   Mostly Cloudy
10:53 AM 42.1°F 34.0°F 73% 30.27 in 10.0 miles Calm Calm - N/A   Mostly Cloudy
11:53 AM 43.0°F 34.0°F 71% 30.27 in 10.0 miles Calm Calm - N/A   Mostly Cloudy
12:53 PM 42.1°F 35.1°F 76% 30.28 in 10.0 miles NNE 9.2 mph - N/A   Mostly Cloudy
1:53 PM 43.0°F 32.0°F 65% 30.27 in 10.0 miles Calm Calm - N/A   Mostly Cloudy
2:53 PM 43.0°F 32.0°F 65% 30.28 in 10.0 miles NNE 3.5 mph - N/A   Mostly Cloudy
3:53 PM 42.1°F 32.0°F 67% 30.31 in 10.0 miles NNE 4.6 mph - N/A   Mostly Cloudy
4:53 PM 41.0°F 33.8°F 76% 30.28 in 10.0 miles NE 4.6 mph - N/A   Mostly Cloudy
5:53 PM 39.9°F 33.1°F 77% 30.32 in 10.0 miles ENE 4.6 mph - N/A   Mostly Cloudy
6:53 PM 39.9°F 33.1°F 77% 30.33 in 10.0 miles ENE 3.5 mph - N/A   Mostly Cloudy
7:53 PM 39.9°F 33.1°F 77% 30.35 in 10.0 miles ENE 3.5 mph - N/A   Overcast
8:53 PM 39.0°F 34.0°F 82% 30.35 in 10.0 miles Calm Calm - N/A   Overcast
9:53 PM 39.0°F 34.0°F 82% 30.36 in 10.0 miles Calm Calm - N/A   Mostly Cloudy
10:53 PM 39.0°F 34.0°F 82% 30.37 in 10.0 miles SE 3.5 mph - N/A   Mostly Cloudy
11:53 PM 37.9°F 33.1°F 83% 30.37 in 10.0 miles SE 4.6 mph - N/A   Mostly Cloudy
Moon Phase
Dec. 08 Dec. 13 Dec. 20 Dec. 28 Jan. 04
Sunrise:07:44 AM (PST) Moon Rise:01:57 AM (PST)12/8
Sunset:04:18 PM (PST) Moon Set:01:07 PM (PST)12/8

Copyright © 2014 The Weather Underground, Inc.